Weather History for Mansfield, OH

Change the Weather History Date:

Tuesday, April 2, 2013

  Actual Average Record
Temperature  
Mean Temperature 29 °F 44 °F  
Max Temperature 39 °F 54 °F 83 °F (2010)
Min Temperature 19 °F 34 °F 19 °F (1924)
Degree Days  
Heating Degree Days 36 22  
Month to date heating degree days 64 44  
Since 1 July heating degree days 5412 5534  
Cooling Degree Days 0 0  
Month to date cooling degree days 0 0  
Year to date cooling degree days 0 1  
Moisture  
Dew Point 14 °F    
Average Humidity 55    
Maximum Humidity 73    
Minimum Humidity 37    
Precipitation  
Precipitation 0.00 in 0.13 in 1.85 in (1977)
Month to date precipitation 0.00 0.27  
Year to date precipitation 6.69 8.92  
Snow  
Snow 0.00 in 0.10 in - ()
Month to date snowfall 0.0 0.3  
Since 1 July snowfall 39.3 46.0  
Snow Depth 0.00 in    
Sea Level Pressure  
Sea Level Pressure 30.18 in    
Wind  
Wind Speed 8 mph (West)    
Max Wind Speed 18 mph    
Max Gust Speed 26 mph    
Visibility 10 miles    
Events      
T = Trace of Precipitation, MM = Missing Value Source: NWS Daily Summary

Daily Weather History Graph

Daily Weather History Graph

Search for Another Location

Airport:

Trip Planner

Search our weather history database for the weather conditions in past years. The results will help you decide how hot, cold, wet, or windy it might be!

Date:

Astronomy

Apr. 02, 2013 Rise Set
Actual Time 7:11 AM EDT 7:56 PM EDT
Civil Twilight 6:43 AM EDT 8:23 PM EDT
Nautical Twilight 6:11 AM EDT 8:56 PM EDT
Astronomical Twilight 5:37 AM EDT 9:30 PM EDT
Moon 2:01 AM EDT (4/2) 11:59 AM EDT (4/2)
Length of Visible Light 13h 40m
Length of Day
12h 44m
Waning Gibbous, 56% of the Moon is Illuminated
Apr 2
Waning Gibbous
Apr 3
Last Quarter
Apr 10
New
Apr 18
First Quarter
Apr 25
Full

Hourly Weather History & Observations

Time (EDT) Temp. Windchill Dew Point Humidity Pressure Visibility Wind Dir Wind Speed Gust Speed Precip Events Conditions
12:52 AM 26.1 °F 17.6 °F 12.9 °F 58% 30.12 in 10.0 mi NW 8.1 mph - N/A   Clear
1:52 AM 25.0 °F 19.3 °F 14.0 °F 63% 30.12 in 10.0 mi WNW 4.6 mph - N/A   Clear
2:52 AM 24.1 °F 18.2 °F 12.9 °F 62% 30.11 in 10.0 mi West 4.6 mph - N/A   Clear
3:52 AM 23.0 °F 13.9 °F 12.9 °F 65% 30.12 in 10.0 mi WNW 8.1 mph - N/A   Clear
4:52 AM 21.9 °F 15.7 °F 12.0 °F 66% 30.12 in 10.0 mi West 4.6 mph - N/A   Clear
5:52 AM 21.0 °F 14.6 °F 12.9 °F 71% 30.14 in 10.0 mi West 4.6 mph - N/A   Clear
6:52 AM 19.9 °F 13.4 °F 12.9 °F 74% 30.16 in 10.0 mi WSW 4.6 mph - N/A   Clear
7:52 AM 23.0 °F 15.8 °F 14.0 °F 68% 30.19 in 10.0 mi WSW 5.8 mph - N/A   Clear
8:52 AM 28.0 °F 19.3 °F 16.0 °F 61% 30.20 in 10.0 mi West 9.2 mph - N/A   Clear
9:52 AM 30.9 °F 22.8 °F 18.0 °F 59% 30.21 in 10.0 mi West 9.2 mph 17.3 mph N/A   Scattered Clouds
10:52 AM 30.9 °F 22.8 °F 17.1 °F 57% 30.22 in 10.0 mi WNW 9.2 mph - N/A   Mostly Cloudy
11:52 AM 30.9 °F 21.2 °F 16.0 °F 54% 30.23 in 10.0 mi WNW 12.7 mph - N/A   Overcast
12:52 PM 35.1 °F 26.4 °F 14.0 °F 42% 30.22 in 10.0 mi WSW 12.7 mph 18.4 mph N/A   Overcast
1:52 PM 35.1 °F 26.4 °F 12.9 °F 40% 30.21 in 10.0 mi WSW 12.7 mph 21.9 mph N/A   Mostly Cloudy
2:52 PM 35.1 °F 28.6 °F 12.9 °F 40% 30.20 in 10.0 mi West 8.1 mph 20.7 mph N/A   Overcast
3:52 PM 37.0 °F 28.9 °F 14.0 °F 39% 30.19 in 10.0 mi West 12.7 mph 18.4 mph N/A   Overcast
4:52 PM 37.9 °F 30.5 °F 14.0 °F 38% 30.18 in 10.0 mi West 11.5 mph 18.4 mph N/A   Mostly Cloudy
5:52 PM 37.0 °F 30.4 °F 14.0 °F 39% 30.19 in 10.0 mi West 9.2 mph 18.4 mph N/A   Overcast
6:52 PM 37.0 °F 29.8 °F 14.0 °F 39% 30.19 in 10.0 mi West 10.4 mph 17.3 mph N/A   Overcast
7:52 PM 35.1 °F 29.3 °F 15.1 °F 44% 30.20 in 10.0 mi WSW 6.9 mph - N/A   Scattered Clouds
8:52 PM 32.0 °F 27.5 °F 16.0 °F 52% 30.20 in 10.0 mi SW 4.6 mph - N/A   Overcast
9:52 PM 33.1 °F 27.7 °F 14.0 °F 46% 30.22 in 10.0 mi West 5.8 mph - N/A   Scattered Clouds
10:52 PM 32.0 °F 25.6 °F 12.9 °F 45% 30.23 in 10.0 mi WNW 6.9 mph - N/A   Clear
11:52 PM 30.0 °F 21.7 °F 12.0 °F 47% 30.25 in 10.0 mi WNW 9.2 mph - N/A   Clear